Flag for New Zealand Weather past 2 weeks in Wellington, New Zealand

Now
52 °F

Cool.


Feels Like: 48 °F
Forecast: 48 / 54 °F
Wind: 10 mph from Southeast

Location: Wellington Airport

Current Time: Sep 2, 2014 at 2:37:07 AM

Latest Report: Sep 2, 2014 at 2:00 AM


Visibility: N/A

Pressure: 30.04 "Hg

Humidity: 62%

Dew point: 39 °F

Location of WellingtonLocation

Historic Weather in Wellington — Graph

°F

Wellington temperature yesterday

Maximum temperature yesterday: 59 °F (at 1:30 PM)
Minimum temperature yesterday: 39 °F (at 4:00 AM)
Average temperature yesterday: 49 °F

Past Weeks' High & Low Weather Summary

 TemperatureHumidityPressure
High61 °F (Aug 31, 1:00 PM)100% (Aug 20, 4:00 PM)30.60 "Hg (Aug 20, 4:00 PM)
Low37 °F (Aug 27, 12:30 AM)45% (Aug 31, 1:30 PM)29.65 "Hg (Aug 20, 4:30 PM)
Average49 °F79%30.32 "Hg
* Reported Aug 18 1:00 AM — Sep 2 1:30 AM, Wellington, Weather by CustomWeather, © 2014

Note: Actual official high and low records may vary slightly from our data, if they occured in-between our weather recording intervals... More about our weather records

Advertising

Wellington weather history for previous 24 hours

 ConditionsComfort  
Time TempWeatherWind HumidityBarometerVisibility
1:30 AM
Sep 2
52 °FCool.12 mph67%30.04 "HgN/A
1:00 AM52 °FCool.12 mph72%30.04 "HgN/A
12:30 AM52 °FPassing clouds.12 mph77%30.04 "HgN/A
12:00 AM52 °FCool.9 mph72%30.04 "HgN/A
11:30 PM
Sep 1
52 °FCool.10 mph72%30.04 "HgN/A
11:00 PM52 °FPassing clouds.9 mph77%30.07 "HgN/A
10:30 PM52 °FPassing clouds.7 mph72%30.07 "HgN/A
10:00 PM52 °FPassing clouds.8 mph72%30.07 "HgN/A
9:30 PM54 °FPartly cloudy.6 mph72%30.07 "HgN/A
9:00 PM54 °FPassing clouds.6 mph67%30.07 "HgN/A
8:30 PM52 °FPassing clouds.5 mph82%30.04 "HgN/A
8:00 PM54 °FMostly cloudy.7 mph77%30.04 "HgN/A
7:30 PM52 °FPassing clouds.8 mph82%30.04 "HgN/A
7:00 PM54 °FMostly cloudy.7 mph72%30.04 "HgN/A
6:30 PM54 °FPassing clouds.6 mph72%30.04 "HgN/A
6:00 PM54 °FPassing clouds.8 mph77%30.04 "HgN/A
5:30 PM54 °FPartly cloudy.12 mph77%30.01 "HgN/A
5:00 PM54 °FPassing clouds.10 mph82%30.01 "HgN/A
4:30 PM54 °FPartly sunny.13 mph82%30.01 "HgN/A
4:00 PM54 °FBroken clouds.13 mph88%30.01 "HgN/A
3:30 PM54 °FPartly sunny.14 mph82%30.01 "HgN/A
3:00 PM55 °FPassing clouds.16 mph82%30.01 "HgN/A
2:30 PM54 °FPassing clouds.18 mph82%30.04 "HgN/A
2:00 PM55 °FPartly sunny.14 mph72%30.04 "HgN/A
1:30 PM59 °FScattered clouds.6 mph63%30.04 "HgN/A
1:00 PM55 °FCool.9 mph67%30.04 "HgN/A
12:30 PM55 °FCool.7 mph63%30.07 "HgN/A
12:00 PM54 °FCool.10 mph77%30.07 "HgN/A
11:30 AM54 °FCool.9 mph77%30.07 "HgN/A
11:00 AM52 °FCool.8 mph82%30.09 "HgN/A
10:30 AM52 °FCool.3 mph77%30.09 "HgN/A
10:00 AM50 °FCool.3 mph82%30.09 "HgN/A
9:30 AM48 °FCool.3 mph82%30.09 "HgN/A
9:00 AM46 °FCool.3 mph87%30.09 "HgN/A
8:30 AM45 °FQuite cool.3 mph93%30.09 "HgN/A
8:00 AM43 °FQuite cool.6 mph93%30.09 "HgN/A
7:30 AM39 °FChilly.3 mph93%30.09 "HgN/A
7:00 AM41 °FQuite cool.3 mph93%30.09 "HgN/A
6:30 AM41 °FQuite cool.3 mph93%30.09 "HgN/A
6:00 AM41 °FQuite cool.2 mph87%30.09 "HgN/A
5:30 AM39 °FChilly.3 mph93%30.09 "HgN/A
5:00 AM41 °FQuite cool.2 mph93%30.09 "HgN/A
4:30 AM41 °FQuite cool.2 mph87%30.09 "HgN/A
4:00 AM39 °FChilly.3 mph93%30.12 "HgN/A
3:30 AM43 °FQuite cool.2 mph93%30.12 "HgN/A
3:00 AM41 °FQuite cool.1 mph93%30.12 "HgN/A
2:30 AM43 °FQuite cool.2 mph93%30.12 "HgN/A
2:00 AM43 °FQuite cool.3 mph87%30.15 "HgN/A
Weather by CustomWeather, © 2014

See weather overviewHow to use our weather pages